Salem, OR

7:26 AM PDT on May 30, 2017 (GMT -0700)
McNary

Weather History for KSLE - April, 2012

Change the Weather History Date:

Saturday, April 28, 2012

  Actual Average Record
Temperature  
Mean Temperature 56 °F 52 °F  
Max Temperature 64 °F 64 °F 93 °F (1926)
Min Temperature 48 °F 41 °F 28 °F (1973)
Degree Days  
Heating Degree Days 9 13  
Month to date heating degree days 373 415  
Since 1 July heating degree days 4102 4218  
Cooling Degree Days 0 0  
Month to date cooling degree days 2 0  
Year to date cooling degree days 2 0  
Growing Degree Days 6 (Base 50)    
Moisture  
Dew Point 46 °F    
Average Humidity 74    
Maximum Humidity 93    
Minimum Humidity 55    
Precipitation  
Precipitation 0.00 in 0.07 in 0.69 in (1969)
Month to date precipitation 2.90 2.67  
Year to date precipitation 27.34 17.18  
Snow  
Snow 0.00 in - - ()
Month to date snowfall 0.0  
Snow Depth 0.00 in    
Sea Level Pressure  
Sea Level Pressure 30.24 in    
Wind  
Wind Speed 2 mph (NE)    
Max Wind Speed 10 mph    
Max Gust Speed 32 mph    
Visibility 10 miles    
Events Rain    
T = Trace of Precipitation, MM = Missing Value Source: NWS Daily Summary

Daily Weather History Graph

Daily Weather History Graph

Search for Another Location

Airport or City:

Trip Planner

Search our weather history database for the weather conditions in past years. The results will help you decide how hot, cold, wet, or windy it might be!

Date:

Astronomy

Apr. 28, 2012 Rise Set
Actual Time 6:05 AM PDT 8:14 PM PDT
Civil Twilight 5:33 AM PDT 8:46 PM PDT
Nautical Twilight 4:53 AM PDT 9:26 PM PDT
Astronomical Twilight 4:09 AM PDT 10:10 PM PDT
Moon 11:49 AM PDT (4/28) 1:44 AM PDT (4/28)
Length of Visible Light 15h 13m
Length of Day
14h 09m
Waxing Crescent, 44% of the Moon is Illuminated
Apr 28
Waxing Crescent
Apr 29
First Quarter
May 5
Full
May 12
Last Quarter
May 20
New

Hourly Weather History & Observations

Time (PDT) Temp. Dew Point Humidity Pressure Visibility Wind Dir Wind Speed Gust Speed Precip Events Conditions
12:16 AM 48.2 °F 46.4 °F 93% 30.29 in 10.0 mi Calm Calm - 0.00 in Rain Light Rain
1:56 AM 48.0 °F 43.0 °F 83% 30.28 in 10.0 mi Calm Calm - N/A   Overcast
2:54 AM 48.2 °F 44.6 °F 87% 30.27 in 10.0 mi Calm Calm - N/A   Overcast
2:56 AM 48.0 °F 45.0 °F 89% 30.27 in 10.0 mi Calm Calm - N/A   Overcast
3:56 AM 48.0 °F 45.0 °F 89% 30.27 in 10.0 mi Calm Calm - N/A   Overcast
4:34 AM 48.2 °F 44.6 °F 87% 30.27 in 10.0 mi Calm Calm - N/A   Overcast
4:51 AM 48.2 °F 44.6 °F 87% 30.27 in 10.0 mi Calm Calm - N/A   Overcast
4:56 AM 48.0 °F 45.0 °F 89% 30.27 in 10.0 mi Calm Calm - N/A   Overcast
5:56 AM 48.0 °F 45.0 °F 89% 30.26 in 10.0 mi Calm Calm - N/A   Overcast
6:56 AM 48.0 °F 45.0 °F 89% 30.27 in 10.0 mi Calm Calm - N/A   Overcast
7:27 AM 48.2 °F 44.6 °F 87% 30.27 in 10.0 mi Calm Calm - N/A   Overcast
7:56 AM 48.9 °F 46.0 °F 90% 30.28 in 10.0 mi ENE 4.6 mph - N/A   Overcast
8:56 AM 50.0 °F 45.0 °F 83% 30.28 in 10.0 mi Calm Calm - N/A   Overcast
9:16 AM 51.8 °F 44.6 °F 76% 30.27 in 10.0 mi Calm Calm - N/A   Overcast
9:56 AM 52.0 °F 45.0 °F 77% 30.28 in 10.0 mi Calm Calm - N/A   Overcast
10:56 AM 55.9 °F 45.0 °F 67% 30.27 in 10.0 mi East 3.5 mph - N/A   Scattered Clouds
11:56 AM 60.1 °F 46.0 °F 60% 30.27 in 10.0 mi East 3.5 mph - N/A   Scattered Clouds
12:56 PM 60.1 °F 45.0 °F 57% 30.26 in 10.0 mi Calm Calm - N/A   Mostly Cloudy
1:56 PM 61.0 °F 46.0 °F 58% 30.23 in 10.0 mi West 3.5 mph - N/A   Mostly Cloudy
2:56 PM 63.0 °F 46.0 °F 54% 30.22 in 10.0 mi Variable 5.8 mph - N/A   Mostly Cloudy
4:56 PM 60.1 °F 48.0 °F 64% 30.21 in 10.0 mi NNW 6.9 mph - N/A   Overcast
5:56 PM 61.0 °F 48.0 °F 62% 30.20 in 10.0 mi Variable 3.5 mph - N/A   Mostly Cloudy
6:56 PM 60.1 °F 46.9 °F 62% 30.19 in 10.0 mi NE 5.8 mph - N/A   Scattered Clouds
7:56 PM 57.9 °F 46.9 °F 67% 30.18 in 10.0 mi NNE 4.6 mph - N/A   Scattered Clouds
8:56 PM 55.0 °F 46.9 °F 74% 30.19 in 10.0 mi Calm Calm - N/A   Mostly Cloudy
9:56 PM 52.0 °F 46.9 °F 83% 30.19 in 10.0 mi Calm Calm - N/A   Clear
10:56 PM 51.1 °F 46.9 °F 86% 30.19 in 10.0 mi Calm Calm - N/A   Clear
11:56 PM 50.0 °F 46.0 °F 86% 30.18 in 10.0 mi Calm Calm - N/A   Clear